Location: Carrières
(48.9495°N, 2.0407°E)
Time: 16:04:03
(UTC+00:00)

Vanguard 2 Rocket - Pass Details

Date: 17 April 2024
Orbit: 556 x 3304 km, 32.9° (Epoch: 18 May)

Event Time Altitude Azimuth Distance (km) Brightness Sun altitude
Rises 04:10:38 0° 274° (W) 7,154 10.9 -7.8°
Reaches altitude 10° 04:17:20 10° 262° (W) 5,850 10.4 -6.8°
Maximum altitude 04:28:29 22° 222° (SW) 4,171 9.7 -5.1°
Drops below altitude 10° 04:36:54 10° 178° (S) 4,253 10.1 -3.8°
Sets 04:40:46 0° 163° (SSE) 4,812 10.6 -3.2°
